| time (UTC) | temp F | wind direction | speed MPH | gust MPH | rain 1hr in | rain 24hr in | rain mn in | humidity % | barometer mb |
| 20260508072719 | 34 | 206 | 0.0 | 0.0 | 0.00 | 0.00 | 0.00 | 99 | 1015.3 |
| 20260508072216 | 34 | 206 | 0.0 | 0.0 | 0.00 | 0.00 | 0.00 | 99 | 1015.3 |
| 20260508071714 | 34 | 206 | 0.0 | 0.0 | 0.00 | 0.00 | 0.00 | 99 | 1015.5 |
| 20260508071212 | 34 | 206 | 0.0 | 0.0 | 0.00 | 0.00 | 0.00 | 99 | 1015.4 |
| 20260508070708 | 34 | 206 | 0.0 | 0.0 | 0.00 | 0.00 | 0.00 | 99 | 1015.4 |
| 20260508070208 | 34 | 206 | 0.0 | 0.0 | 0.00 | 0.00 | 0.00 | 99 | 1015.3 |
| 20260508065704 | 34 | 206 | 0.0 | 0.0 | 0.00 | 0.00 | 0.00 | 99 | 1015.4 |
| 20260508065202 | 34 | 206 | 0.0 | 0.0 | 0.00 | 0.00 | 0.00 | 99 | 1015.3 |
| 20260508064700 | 35 | 206 | 0.0 | 0.0 | 0.00 | 0.00 | 0.00 | 99 | 1015.5 |
| 20260508064158 | 35 | 206 | 0.0 | 0.0 | 0.00 | 0.00 | 0.00 | 99 | 1015.5 |
| 20260508063655 | 35 | 206 | 0.0 | 0.0 | 0.00 | 0.00 | 0.00 | 99 | 1015.6 |
| 20260508063153 | 35 | 206 | 0.0 | 0.0 | 0.00 | 0.00 | 0.00 | 98 | 1015.6 |
| 20260508062650 | 35 | 206 | 0.0 | 0.0 | 0.00 | 0.00 | 0.00 | 98 | 1015.4 |
| 20260508062147 | 35 | 206 | 0.0 | 0.0 | 0.00 | 0.00 | 0.00 | 98 | 1015.4 |
| 20260508061644 | 35 | 206 | 0.0 | 0.0 | 0.00 | 0.00 | 0.00 | 98 | 1015.2 |
| 20260508061141 | 35 | 206 | 0.0 | 0.0 | 0.00 | 0.00 | 0.00 | 98 | 1015.4 |
| 20260508060638 | 35 | 206 | 0.0 | 0.0 | 0.00 | 0.00 | 0.00 | 98 | 1015.2 |
| 20260508060135 | 36 | 206 | 0.0 | 0.0 | 0.00 | 0.00 | 0.00 | 98 | 1015.2 |
| 20260508055630 | 36 | 206 | 0.0 | 0.0 | 0.00 | 0.00 | 0.00 | 98 | 1015.4 |
| 20260508055128 | 36 | 206 | 0.0 | 0.0 | 0.00 | 0.00 | 0.00 | 98 | 1015.2 |
| 20260508054624 | 36 | 206 | 0.0 | 0.0 | 0.00 | 0.00 | 0.00 | 98 | 1015.2 |
| 20260508054122 | 36 | 206 | 0.0 | 0.0 | 0.00 | 0.00 | 0.00 | 98 | 1015.3 |
| 20260508053618 | 36 | 206 | 0.0 | 0.0 | 0.00 | 0.00 | 0.00 | 98 | 1015.3 |
| 20260508053116 | 36 | 206 | 0.0 | 0.0 | 0.00 | 0.00 | 0.00 | 97 | 1015.5 |
| 20260508052613 | 36 | 206 | 0.0 | 0.0 | 0.00 | 0.00 | 0.00 | 97 | 1015.1 |
| 20260508052110 | 36 | 206 | 0.0 | 0.0 | 0.00 | 0.00 | 0.00 | 97 | 1015.1 |
| 20260508051606 | 36 | 206 | 0.0 | 0.0 | 0.00 | 0.00 | 0.00 | 97 | 1015.3 |
| 20260508051102 | 37 | 206 | 0.0 | 0.0 | 0.00 | 0.00 | 0.00 | 97 | 1015.1 |
| 20260508050558 | 37 | 206 | 0.0 | 0.0 | 0.00 | 0.00 | 0.00 | 97 | 1015.2 |
| 20260508050056 | 37 | 206 | 0.0 | 0.0 | 0.00 | 0.00 | 0.00 | 96 | 1015.3 |
| 20260508045551 | 37 | 206 | 0.0 | 0.0 | 0.00 | 0.00 | 0.00 | 96 | 1015.2 |
| 20260508045050 | 37 | 206 | 0.0 | 0.0 | 0.00 | 0.00 | 0.00 | 96 | 1015.1 |
| 20260508044547 | 37 | 206 | 1.0 | 2.0 | 0.00 | 0.00 | 0.00 | 96 | 1015.2 |
| 20260508044043 | 37 | 206 | 0.0 | 0.0 | 0.00 | 0.00 | 0.00 | 95 | 1015.2 |
| 20260508043539 | 38 | 206 | 0.0 | 0.0 | 0.00 | 0.00 | 0.00 | 95 | 1015.2 |
| 20260508043037 | 38 | 206 | 0.0 | 0.0 | 0.00 | 0.00 | 0.00 | 94 | 1015.3 |
| 20260508042533 | 38 | 206 | 0.0 | 1.0 | 0.00 | 0.00 | 0.00 | 94 | 1015.2 |
| 20260508042031 | 38 | 206 | 2.0 | 2.0 | 0.00 | 0.00 | 0.00 | 94 | 1015.1 |
| 20260508041527 | 38 | 206 | 0.0 | 0.0 | 0.00 | 0.00 | 0.00 | 94 | 1015.0 |
| 20260508041024 | 38 | 206 | 0.0 | 0.0 | 0.00 | 0.00 | 0.00 | 94 | 1015.0 |
| 20260508040521 | 38 | 206 | 0.0 | 0.0 | 0.00 | 0.00 | 0.00 | 93 | 1015.1 |
| 20260508040018 | 39 | 206 | 0.0 | 0.0 | 0.00 | 0.00 | 0.00 | 93 | 1014.9 |
| 20260508035515 | 39 | 207 | 0.0 | 0.0 | 0.00 | 0.00 | 0.00 | 93 | 1014.9 |
| 20260508035012 | 39 | 206 | 0.0 | 0.0 | 0.00 | 0.00 | 0.00 | 92 | 1015.0 |
| 20260508034509 | 39 | 206 | 0.0 | 0.0 | 0.00 | 0.00 | 0.00 | 92 | 1014.9 |
| 20260508034006 | 39 | 206 | 0.0 | 0.0 | 0.00 | 0.00 | 0.00 | 91 | 1014.9 |
| 20260508033504 | 40 | 206 | 0.0 | 0.0 | 0.00 | 0.00 | 0.00 | 91 | 1014.5 |
| 20260508033001 | 40 | 206 | 0.0 | 0.0 | 0.00 | 0.00 | 0.00 | 90 | 1014.6 |
| 20260508032458 | 40 | 206 | 0.0 | 0.0 | 0.00 | 0.00 | 0.00 | 90 | 1014.6 |
| 20260508031955 | 40 | 206 | 0.0 | 0.0 | 0.00 | 0.00 | 0.00 | 89 | 1014.5 |
| 20260508031453 | 41 | 206 | 0.0 | 0.0 | 0.00 | 0.00 | 0.00 | 89 | 1014.5 |
| 20260508030948 | 41 | 206 | 0.0 | 0.0 | 0.00 | 0.00 | 0.00 | 88 | 1014.5 |
| 20260508030445 | 41 | 206 | 0.0 | 0.0 | 0.00 | 0.00 | 0.00 | 87 | 1014.4 |
| 20260508025943 | 41 | 206 | 0.0 | 0.0 | 0.00 | 0.00 | 0.00 | 87 | 1014.4 |
| 20260508025439 | 41 | 206 | 0.0 | 0.0 | 0.00 | 0.00 | 0.00 | 86 | 1014.4 |
| 20260508024936 | 41 | 206 | 0.0 | 0.0 | 0.00 | 0.00 | 0.00 | 86 | 1014.1 |
| 20260508024432 | 42 | 206 | 0.0 | 0.0 | 0.00 | 0.00 | 0.00 | 85 | 1014.3 |
| 20260508023929 | 42 | 207 | 0.0 | 0.0 | 0.00 | 0.00 | 0.00 | 84 | 1014.1 |
| 20260508023426 | 42 | 206 | 0.0 | 0.0 | 0.00 | 0.00 | 0.00 | 83 | 1014.1 |
| 20260508022923 | 43 | 207 | 0.0 | 0.0 | 0.00 | 0.00 | 0.00 | 82 | 1014.0 |
| 20260508022418 | 43 | 206 | 0.0 | 0.0 | 0.00 | 0.00 | 0.00 | 82 | 1014.1 |
| 20260508021916 | 43 | 207 | 0.0 | 0.0 | 0.00 | 0.00 | 0.00 | 79 | 1014.1 |
| 20260508021412 | 44 | 206 | 0.0 | 0.0 | 0.00 | 0.00 | 0.00 | 79 | 1013.9 |
| 20260508020908 | 44 | 207 | 0.0 | 0.0 | 0.00 | 0.00 | 0.00 | 77 | 1014.0 |
| 20260508020406 | 44 | 207 | 0.0 | 0.0 | 0.00 | 0.00 | 0.00 | 78 | 1013.8 |
| 20260508015903 | 44 | 206 | 0.0 | 0.0 | 0.00 | 0.00 | 0.00 | 75 | 1013.8 |
| 20260508015400 | 45 | 207 | 0.0 | 0.0 | 0.00 | 0.00 | 0.00 | 74 | 1013.8 |
| 20260508014856 | 45 | 207 | 0.0 | 0.0 | 0.00 | 0.00 | 0.00 | 74 | 1013.9 |
| 20260508014354 | 45 | 207 | 0.0 | 0.0 | 0.00 | 0.00 | 0.00 | 75 | 1013.6 |
| 20260508013849 | 45 | 206 | 0.0 | 0.0 | 0.00 | 0.00 | 0.00 | 74 | 1013.6 |
| 20260508013346 | 46 | 207 | 0.0 | 0.0 | 0.00 | 0.00 | 0.00 | 73 | 1013.6 |
| 20260508012843 | 46 | 207 | 0.0 | 0.0 | 0.00 | 0.00 | 0.00 | 73 | 1013.6 |
| 20260508012340 | 47 | 207 | 0.0 | 0.0 | 0.00 | 0.00 | 0.00 | 70 | 1013.4 |
| 20260508011838 | 47 | 207 | 0.0 | 0.0 | 0.00 | 0.00 | 0.00 | 70 | 1013.3 |
| 20260508011336 | 47 | 207 | 0.0 | 0.0 | 0.00 | 0.00 | 0.00 | 70 | 1013.4 |
| 20260508010833 | 48 | 207 | 0.0 | 0.0 | 0.00 | 0.00 | 0.00 | 70 | 1013.2 |
| 20260508010330 | 48 | 207 | 0.0 | 0.0 | 0.00 | 0.00 | 0.00 | 70 | 1013.3 |
| 20260508005827 | 49 | 207 | 0.0 | 0.0 | 0.00 | 0.00 | 0.00 | 67 | 1013.2 |
| 20260508005324 | 50 | 207 | 0.0 | 0.0 | 0.00 | 0.00 | 0.00 | 67 | 1013.2 |
| 20260508004820 | 51 | 207 | 1.0 | 1.0 | 0.00 | 0.00 | 0.00 | 58 | 1013.0 |
| 20260508004316 | 50 | 207 | 0.0 | 0.0 | 0.00 | 0.00 | 0.00 | 63 | 1013.0 |
| 20260508003813 | 51 | 207 | 0.0 | 0.0 | 0.00 | 0.00 | 0.00 | 62 | 1012.9 |
| 20260508003310 | 51 | 207 | 1.0 | 2.0 | 0.00 | 0.00 | 0.00 | 63 | 1012.9 |
| 20260508002807 | 51 | 207 | 0.0 | 0.0 | 0.00 | 0.00 | 0.00 | 60 | 1013.1 |
| 20260508002306 | 50 | 207 | 0.0 | 0.0 | 0.00 | 0.00 | 0.00 | 63 | 1012.8 |
| 20260508001800 | 51 | 207 | 0.0 | 0.0 | 0.00 | 0.00 | 0.00 | 62 | 1012.8 |
| 20260508001255 | 52 | 207 | 0.0 | 0.0 | 0.00 | 0.00 | 0.00 | 65 | 1012.7 |
| 20260508000752 | 53 | 207 | 0.0 | 0.0 | 0.00 | 0.00 | 0.00 | 60 | 1012.5 |
| 20260508000250 | 54 | 207 | 0.0 | 0.0 | 0.00 | 0.00 | 0.00 | 52 | 1012.4 |
| 20260507235745 | 55 | 207 | 0.0 | 1.0 | 0.00 | 0.00 | 0.00 | 50 | 1012.7 |
| 20260507235243 | 55 | 207 | 3.0 | 3.0 | 0.00 | 0.00 | 0.00 | 49 | 1012.7 |
| 20260507234739 | 55 | 207 | 2.0 | 3.0 | 0.00 | 0.00 | 0.00 | 51 | 1012.6 |
| 20260507234237 | 55 | 207 | 2.0 | 2.0 | 0.00 | 0.00 | 0.00 | 50 | 1012.6 |
| 20260507233732 | 55 | 207 | 1.0 | 1.0 | 0.00 | 0.00 | 0.00 | 48 | 1012.4 |
| 20260507233231 | 56 | 207 | 0.0 | 0.0 | 0.00 | 0.00 | 0.00 | 51 | 1012.3 |
| 20260507232728 | 56 | 207 | 2.0 | 2.0 | 0.00 | 0.00 | 0.00 | 50 | 1012.3 |
| 20260507232225 | 56 | 207 | 2.0 | 3.0 | 0.00 | 0.00 | 0.00 | 50 | 1012.2 |
| 20260507231721 | 57 | 207 | 2.0 | 2.0 | 0.00 | 0.00 | 0.00 | 50 | 1012.3 |
| 20260507231218 | 57 | 207 | 3.0 | 3.0 | 0.00 | 0.00 | 0.00 | 48 | 1012.0 |
| 20260507230715 | 57 | 207 | 3.0 | 4.0 | 0.00 | 0.00 | 0.00 | 47 | 1012.1 |
| 20260507230213 | 57 | 207 | 1.0 | 1.0 | 0.00 | 0.00 | 0.00 | 50 | 1011.8 |
| 20260507225711 | 57 | 207 | 2.0 | 3.0 | 0.00 | 0.00 | 0.00 | 49 | 1011.8 |
| 20260507225209 | 57 | 207 | 1.0 | 2.0 | 0.00 | 0.00 | 0.00 | 50 | 1011.9 |
| 20260507224705 | 57 | 207 | 1.0 | 1.0 | 0.00 | 0.00 | 0.00 | 52 | 1011.9 |
| 20260507224201 | 58 | 207 | 3.0 | 4.0 | 0.00 | 0.00 | 0.00 | 49 | 1011.9 |
| 20260507223657 | 60 | 207 | 2.0 | 3.0 | 0.00 | 0.00 | 0.00 | 46 | 1011.6 |
| 20260507223154 | 59 | 207 | 2.0 | 2.0 | 0.00 | 0.00 | 0.00 | 49 | 1011.8 |
| 20260507222651 | 60 | 207 | 2.0 | 4.0 | 0.00 | 0.00 | 0.00 | 49 | 1011.6 |
| 20260507222147 | 60 | 207 | 0.0 | 0.0 | 0.00 | 0.00 | 0.00 | 45 | 1011.6 |
| 20260507221644 | 60 | 207 | 2.0 | 2.0 | 0.00 | 0.00 | 0.00 | 50 | 1011.7 |
| 20260507221140 | 60 | 207 | 3.0 | 3.0 | 0.00 | 0.00 | 0.00 | 43 | 1011.6 |
| 20260507220637 | 60 | 207 | 2.0 | 2.0 | 0.00 | 0.00 | 0.00 | 46 | 1011.7 |
| 20260507220136 | 60 | 207 | 1.0 | 2.0 | 0.00 | 0.00 | 0.00 | 49 | 1011.4 |
| 20260507215631 | 61 | 207 | 0.0 | 0.0 | 0.00 | 0.00 | 0.00 | 52 | 1011.2 |
| 20260507215129 | 60 | 207 | 4.0 | 4.0 | 0.00 | 0.00 | 0.00 | 48 | 1011.2 |
| 20260507214626 | 60 | 208 | 4.0 | 4.0 | 0.00 | 0.00 | 0.00 | 48 | 1011.2 |
| 20260507214122 | 62 | 208 | 3.0 | 4.0 | 0.00 | 0.00 | 0.00 | 44 | 1011.0 |
| 20260507213618 | 63 | 208 | 1.0 | 2.0 | 0.00 | 0.00 | 0.00 | 47 | 1010.8 |
| 20260507213116 | 62 | 208 | 0.0 | 0.0 | 0.00 | 0.00 | 0.00 | 46 | 1010.9 |
| 20260507212611 | 61 | 208 | 2.0 | 2.0 | 0.00 | 0.00 | 0.00 | 47 | 1010.8 |
| 20260507212108 | 60 | 208 | 3.0 | 4.0 | 0.00 | 0.00 | 0.00 | 47 | 1010.9 |
| 20260507211605 | 60 | 208 | 4.0 | 7.0 | 0.00 | 0.00 | 0.00 | 49 | 1010.9 |
| 20260507211101 | 58 | 207 | 3.0 | 3.0 | 0.00 | 0.00 | 0.00 | 51 | 1010.8 |
| 20260507210559 | 58 | 207 | 6.0 | 9.0 | 0.00 | 0.00 | 0.00 | 49 | 1010.8 |
| 20260507210055 | 58 | 207 | 3.0 | 3.0 | 0.00 | 0.00 | 0.00 | 53 | 1010.8 |
| 20260507205552 | 59 | 207 | 4.0 | 6.0 | 0.00 | 0.00 | 0.00 | 49 | 1010.7 |
| 20260507205048 | 59 | 207 | 3.0 | 6.0 | 0.00 | 0.00 | 0.00 | 50 | 1010.6 |
| 20260507204544 | 59 | 207 | 7.0 | 10.0 | 0.00 | 0.00 | 0.00 | 50 | 1010.7 |
| 20260507204042 | 61 | 207 | 5.0 | 6.0 | 0.00 | 0.00 | 0.00 | 47 | 1010.7 |
| 20260507203540 | 60 | 208 | 4.0 | 4.0 | 0.00 | 0.00 | 0.00 | 48 | 1010.7 |
| 20260507203037 | 60 | 208 | 3.0 | 3.0 | 0.00 | 0.00 | 0.00 | 49 | 1010.6 |
| 20260507202533 | 60 | 207 | 5.0 | 8.0 | 0.00 | 0.00 | 0.00 | 47 | 1010.8 |
| 20260507202029 | 61 | 207 | 1.0 | 1.0 | 0.00 | 0.00 | 0.00 | 47 | 1010.5 |
| 20260507201525 | 62 | 208 | 1.0 | 2.0 | 0.00 | 0.00 | 0.00 | 47 | 1010.4 |
| 20260507201021 | 61 | 208 | 2.0 | 2.0 | 0.00 | 0.00 | 0.00 | 49 | 1010.4 |
| 20260507200517 | 60 | 208 | 5.0 | 8.0 | 0.00 | 0.00 | 0.00 | 48 | 1010.8 |
| 20260507200013 | 60 | 208 | 2.0 | 2.0 | 0.00 | 0.00 | 0.00 | 49 | 1010.6 |
| 20260507195511 | 62 | 207 | 3.0 | 3.0 | 0.00 | 0.00 | 0.00 | 45 | 1010.6 |
| 20260507195008 | 62 | 208 | 5.0 | 8.0 | 0.00 | 0.00 | 0.00 | 45 | 1010.7 |
| 20260507194504 | 62 | 208 | 3.0 | 6.0 | 0.00 | 0.00 | 0.00 | 44 | 1010.6 |
| 20260507194000 | 62 | 208 | 4.0 | 4.0 | 0.00 | 0.00 | 0.00 | 45 | 1010.6 |
| 20260507193457 | 62 | 208 | 3.0 | 4.0 | 0.00 | 0.00 | 0.00 | 49 | 1010.6 |
| 20260507192954 | 61 | 207 | 8.0 | 9.0 | 0.00 | 0.00 | 0.00 | 45 | 1010.8 |
| 20260507192450 | 62 | 207 | 3.0 | 4.0 | 0.00 | 0.00 | 0.00 | 46 | 1010.6 |
| 20260507191947 | 61 | 208 | 2.0 | 2.0 | 0.00 | 0.00 | 0.00 | 45 | 1010.9 |
| 20260507191443 | 61 | 208 | 5.0 | 6.0 | 0.00 | 0.00 | 0.00 | 49 | 1011.0 |
| 20260507190940 | 61 | 208 | 4.0 | 4.0 | 0.00 | 0.00 | 0.00 | 49 | 1010.9 |
| 20260507190438 | 61 | 208 | 4.0 | 6.0 | 0.00 | 0.00 | 0.00 | 46 | 1011.0 |
| 20260507185936 | 60 | 208 | 4.0 | 6.0 | 0.00 | 0.00 | 0.00 | 54 | 1011.0 |
| 20260507185433 | 59 | 208 | 4.0 | 4.0 | 0.00 | 0.00 | 0.00 | 55 | 1011.0 |
| 20260507184930 | 61 | 208 | 4.0 | 6.0 | 0.00 | 0.00 | 0.00 | 53 | 1011.2 |
| 20260507184428 | 60 | 207 | 3.0 | 4.0 | 0.00 | 0.00 | 0.00 | 52 | 1011.2 |
| 20260507183926 | 60 | 207 | 4.0 | 4.0 | 0.00 | 0.00 | 0.00 | 53 | 1011.2 |
| 20260507183422 | 58 | 207 | 2.0 | 2.0 | 0.00 | 0.00 | 0.00 | 62 | 1011.3 |
| 20260507182919 | 57 | 207 | 3.0 | 3.0 | 0.00 | 0.00 | 0.00 | 63 | 1011.2 |
| 20260507182415 | 57 | 207 | 3.0 | 3.0 | 0.00 | 0.00 | 0.00 | 59 | 1011.2 |
| 20260507181911 | 57 | 207 | 0.0 | 1.0 | 0.00 | 0.00 | 0.00 | 60 | 1011.3 |
| 20260507181408 | 57 | 207 | 0.0 | 0.0 | 0.00 | 0.00 | 0.00 | 58 | 1010.9 |
| 20260507180904 | 57 | 207 | 4.0 | 4.0 | 0.00 | 0.00 | 0.00 | 60 | 1011.2 |
| 20260507180401 | 57 | 207 | 3.0 | 4.0 | 0.00 | 0.00 | 0.00 | 61 | 1011.5 |
| 20260507175857 | 57 | 207 | 3.0 | 3.0 | 0.00 | 0.00 | 0.00 | 65 | 1011.3 |
| 20260507175354 | 57 | 207 | 3.0 | 4.0 | 0.00 | 0.00 | 0.00 | 61 | 1011.5 |
| 20260507174852 | 57 | 207 | 0.0 | 1.0 | 0.00 | 0.00 | 0.00 | 60 | 1011.4 |
| 20260507174349 | 57 | 207 | 1.0 | 2.0 | 0.00 | 0.00 | 0.00 | 61 | 1011.4 |
| 20260507173847 | 57 | 207 | 1.0 | 1.0 | 0.00 | 0.00 | 0.00 | 64 | 1011.5 |
| 20260507173343 | 57 | 207 | 1.0 | 1.0 | 0.00 | 0.00 | 0.00 | 62 | 1011.5 |
| 20260507172839 | 58 | 207 | 1.0 | 3.0 | 0.00 | 0.00 | 0.00 | 61 | 1011.5 |
| 20260507172336 | 57 | 207 | 4.0 | 6.0 | 0.00 | 0.00 | 0.00 | 61 | 1011.6 |
| 20260507171832 | 57 | 207 | 7.0 | 8.0 | 0.00 | 0.00 | 0.00 | 61 | 1011.4 |
| 20260507171329 | 59 | 207 | 5.0 | 6.0 | 0.00 | 0.00 | 0.00 | 59 | 1011.6 |
| 20260507170826 | 58 | 207 | 1.0 | 2.0 | 0.00 | 0.00 | 0.00 | 62 | 1011.4 |
| 20260507170322 | 57 | 207 | 2.0 | 2.0 | 0.00 | 0.00 | 0.00 | 63 | 1011.5 |
| 20260507165819 | 58 | 207 | 4.0 | 4.0 | 0.00 | 0.00 | 0.00 | 61 | 1011.7 |
| 20260507165315 | 58 | 207 | 2.0 | 2.0 | 0.00 | 0.00 | 0.00 | 63 | 1011.7 |
| 20260507164811 | 59 | 207 | 2.0 | 3.0 | 0.00 | 0.00 | 0.00 | 58 | 1011.8 |
| 20260507164308 | 58 | 207 | 0.0 | 0.0 | 0.00 | 0.00 | 0.00 | 62 | 1011.9 |
| 20260507163805 | 58 | 207 | 0.0 | 1.0 | 0.00 | 0.00 | 0.00 | 61 | 1011.7 |
| 20260507163303 | 60 | 207 | 1.0 | 1.0 | 0.00 | 0.00 | 0.00 | 57 | 1011.7 |
| 20260507162759 | 59 | 207 | 1.0 | 1.0 | 0.00 | 0.00 | 0.00 | 60 | 1011.9 |
| 20260507162254 | 58 | 207 | 1.0 | 1.0 | 0.00 | 0.00 | 0.00 | 60 | 1012.1 |
| 20260507161752 | 57 | 207 | 1.0 | 1.0 | 0.00 | 0.00 | 0.00 | 68 | 1012.0 |
| 20260507161248 | 57 | 207 | 0.0 | 0.0 | 0.00 | 0.00 | 0.00 | 60 | 1012.0 |
| 20260507160744 | 56 | 207 | 1.0 | 1.0 | 0.00 | 0.00 | 0.00 | 65 | 1012.1 |
| 20260507160241 | 56 | 207 | 0.0 | 0.0 | 0.00 | 0.00 | 0.00 | 63 | 1012.3 |
| 20260507155737 | 55 | 207 | 1.0 | 1.0 | 0.00 | 0.00 | 0.00 | 68 | 1012.4 |
| 20260507155233 | 55 | 207 | 2.0 | 3.0 | 0.00 | 0.00 | 0.00 | 65 | 1012.5 |
| 20260507154730 | 56 | 207 | 0.0 | 0.0 | 0.00 | 0.00 | 0.00 | 61 | 1012.4 |
| 20260507154228 | 55 | 207 | 0.0 | 1.0 | 0.00 | 0.00 | 0.00 | 63 | 1012.6 |
| 20260507153723 | 54 | 207 | 2.0 | 2.0 | 0.00 | 0.00 | 0.00 | 64 | 1012.3 |
| 20260507153220 | 55 | 207 | 2.0 | 2.0 | 0.00 | 0.00 | 0.00 | 67 | 1012.6 |
| 20260507152717 | 54 | 207 | 1.0 | 2.0 | 0.00 | 0.00 | 0.00 | 66 | 1012.7 |
| 20260507152213 | 55 | 207 | 2.0 | 2.0 | 0.00 | 0.00 | 0.00 | 67 | 1012.7 |
| 20260507151709 | 54 | 207 | 0.0 | 0.0 | 0.00 | 0.00 | 0.00 | 67 | 1012.7 |
| 20260507151206 | 54 | 207 | 0.0 | 0.0 | 0.00 | 0.00 | 0.00 | 67 | 1012.6 |
| 20260507150703 | 54 | 207 | 1.0 | 1.0 | 0.00 | 0.00 | 0.00 | 68 | 1012.6 |
| 20260507150159 | 54 | 207 | 1.0 | 2.0 | 0.00 | 0.00 | 0.00 | 66 | 1012.7 |
| 20260507145655 | 53 | 207 | 0.0 | 1.0 | 0.00 | 0.00 | 0.00 | 67 | 1012.7 |
| 20260507145152 | 53 | 207 | 2.0 | 2.0 | 0.00 | 0.00 | 0.00 | 68 | 1012.9 |
| 20260507144648 | 55 | 207 | 1.0 | 2.0 | 0.00 | 0.00 | 0.00 | 65 | 1012.8 |
| 20260507144147 | 54 | 207 | 1.0 | 1.0 | 0.00 | 0.00 | 0.00 | 68 | 1012.7 |
| 20260507143643 | 55 | 207 | 3.0 | 3.0 | 0.00 | 0.00 | 0.00 | 69 | 1012.7 |
| 20260507143140 | 54 | 207 | 2.0 | 2.0 | 0.00 | 0.00 | 0.00 | 67 | 1012.8 |
| 20260507142636 | 54 | 207 | 2.0 | 2.0 | 0.00 | 0.00 | 0.00 | 67 | 1013.0 |
| 20260507142133 | 54 | 207 | 2.0 | 2.0 | 0.00 | 0.00 | 0.00 | 72 | 1013.0 |
| 20260507141629 | 53 | 207 | 0.0 | 0.0 | 0.00 | 0.00 | 0.00 | 73 | 1012.7 |
| 20260507141126 | 53 | 207 | 0.0 | 0.0 | 0.00 | 0.00 | 0.00 | 77 | 1013.0 |
| 20260507140623 | 53 | 207 | 0.0 | 0.0 | 0.00 | 0.00 | 0.00 | 75 | 1013.1 |
| 20260507140120 | 53 | 207 | 0.0 | 0.0 | 0.00 | 0.00 | 0.00 | 74 | 1013.1 |
| 20260507135617 | 53 | 207 | 1.0 | 1.0 | 0.00 | 0.00 | 0.00 | 77 | 1013.4 |
| 20260507135115 | 53 | 207 | 1.0 | 2.0 | 0.00 | 0.00 | 0.00 | 78 | 1013.2 |
| 20260507134611 | 52 | 207 | 1.0 | 1.0 | 0.00 | 0.00 | 0.00 | 74 | 1013.4 |
| 20260507134107 | 51 | 207 | 0.0 | 0.0 | 0.00 | 0.00 | 0.00 | 75 | 1013.3 |
| 20260507133603 | 51 | 207 | 0.0 | 1.0 | 0.00 | 0.00 | 0.00 | 77 | 1013.6 |
| 20260507133101 | 51 | 207 | 0.0 | 1.0 | 0.00 | 0.00 | 0.00 | 77 | 1013.3 |
| 20260507132557 | 51 | 207 | 1.0 | 2.0 | 0.00 | 0.00 | 0.00 | 80 | 1013.5 |
| 20260507132054 | 50 | 207 | 0.0 | 0.0 | 0.00 | 0.00 | 0.00 | 79 | 1013.5 |
| 20260507131551 | 50 | 207 | 0.0 | 0.0 | 0.00 | 0.00 | 0.00 | 80 | 1013.6 |
| 20260507131048 | 50 | 207 | 0.0 | 0.0 | 0.00 | 0.00 | 0.00 | 80 | 1013.5 |
| 20260507130545 | 50 | 207 | 2.0 | 3.0 | 0.00 | 0.00 | 0.00 | 81 | 1013.4 |
| 20260507130043 | 50 | 207 | 0.0 | 0.0 | 0.00 | 0.00 | 0.00 | 82 | 1013.4 |
| 20260507125541 | 50 | 207 | 0.0 | 0.0 | 0.00 | 0.00 | 0.00 | 82 | 1013.6 |
| 20260507125038 | 50 | 207 | 0.0 | 0.0 | 0.00 | 0.00 | 0.00 | 83 | 1013.3 |
| 20260507124534 | 50 | 207 | 0.0 | 0.0 | 0.00 | 0.00 | 0.00 | 82 | 1013.4 |
| 20260507124032 | 50 | 207 | 0.0 | 0.0 | 0.00 | 0.00 | 0.00 | 83 | 1013.5 |
| 20260507123530 | 50 | 207 | 1.0 | 1.0 | 0.00 | 0.00 | 0.00 | 84 | 1013.4 |
| 20260507123027 | 50 | 207 | 0.0 | 0.0 | 0.00 | 0.00 | 0.00 | 84 | 1013.4 |
| 20260507122522 | 50 | 207 | 0.0 | 0.0 | 0.00 | 0.00 | 0.00 | 85 | 1013.4 |
| 20260507122018 | 50 | 207 | 1.0 | 1.0 | 0.00 | 0.00 | 0.00 | 84 | 1013.3 |
| 20260507121514 | 50 | 207 | 0.0 | 0.0 | 0.00 | 0.00 | 0.00 | 85 | 1013.3 |
| 20260507121010 | 50 | 207 | 1.0 | 2.0 | 0.00 | 0.00 | 0.00 | 85 | 1013.2 |
| 20260507120506 | 50 | 207 | 2.0 | 4.0 | 0.00 | 0.00 | 0.00 | 85 | 1013.3 |
| 20260507120004 | 50 | 207 | 0.0 | 0.0 | 0.00 | 0.00 | 0.00 | 85 | 1013.4 |
| 20260507115459 | 50 | 207 | 0.0 | 1.0 | 0.00 | 0.00 | 0.00 | 85 | 1013.2 |
| 20260507114955 | 50 | 207 | 1.0 | 2.0 | 0.00 | 0.00 | 0.00 | 85 | 1013.2 |
| 20260507114451 | 50 | 207 | 1.0 | 1.0 | 0.00 | 0.00 | 0.00 | 86 | 1012.9 |
| 20260507113949 | 50 | 207 | 1.0 | 2.0 | 0.00 | 0.00 | 0.00 | 86 | 1012.9 |
| 20260507113446 | 50 | 207 | 2.0 | 2.0 | 0.00 | 0.00 | 0.00 | 85 | 1012.8 |
| 20260507112943 | 50 | 207 | 0.0 | 0.0 | 0.00 | 0.00 | 0.00 | 86 | 1012.7 |
| 20260507112441 | 50 | 207 | 2.0 | 3.0 | 0.00 | 0.00 | 0.00 | 85 | 1012.8 |
| 20260507111937 | 50 | 207 | 1.0 | 1.0 | 0.00 | 0.00 | 0.00 | 86 | 1012.7 |
| 20260507111435 | 51 | 207 | 1.0 | 1.0 | 0.00 | 0.00 | 0.00 | 86 | 1012.6 |
| 20260507110931 | 51 | 207 | 0.0 | 0.0 | 0.00 | 0.00 | 0.00 | 87 | 1012.5 |
| 20260507110427 | 51 | 207 | 0.0 | 1.0 | 0.00 | 0.00 | 0.00 | 87 | 1012.9 |
| 20260507105924 | 51 | 207 | 0.0 | 0.0 | 0.00 | 0.00 | 0.00 | 88 | 1012.6 |
| 20260507105421 | 51 | 207 | 0.0 | 0.0 | 0.00 | 0.00 | 0.00 | 88 | 1012.2 |
| 20260507104917 | 51 | 207 | 0.0 | 0.0 | 0.00 | 0.00 | 0.00 | 88 | 1012.2 |
| 20260507104414 | 51 | 207 | 0.0 | 0.0 | 0.00 | 0.00 | 0.00 | 88 | 1012.3 |
| 20260507103910 | 51 | 207 | 0.0 | 0.0 | 0.00 | 0.00 | 0.00 | 90 | 1012.4 |
| 20260507103407 | 51 | 207 | 0.0 | 0.0 | 0.00 | 0.00 | 0.00 | 90 | 1012.1 |
| 20260507102903 | 51 | 207 | 0.0 | 0.0 | 0.00 | 0.00 | 0.00 | 91 | 1012.3 |
| 20260507102400 | 51 | 207 | 0.0 | 0.0 | 0.00 | 0.00 | 0.00 | 89 | 1012.2 |
| 20260507101856 | 51 | 207 | 0.0 | 0.0 | 0.00 | 0.00 | 0.00 | 89 | 1012.2 |
| 20260507101356 | 51 | 207 | 1.0 | 1.0 | 0.00 | 0.00 | 0.00 | 88 | 1012.0 |
| 20260507100853 | 51 | 207 | 0.0 | 0.0 | 0.00 | 0.00 | 0.00 | 88 | 1012.1 |
| 20260507100351 | 51 | 207 | 0.0 | 1.0 | 0.00 | 0.00 | 0.00 | 87 | 1012.1 |
| 20260507095849 | 52 | 207 | 1.0 | 1.0 | 0.00 | 0.00 | 0.00 | 87 | 1012.3 |
| 20260507095345 | 52 | 207 | 1.0 | 1.0 | 0.00 | 0.00 | 0.00 | 88 | 1012.2 |
| 20260507094843 | 52 | 207 | 0.0 | 1.0 | 0.00 | 0.00 | 0.00 | 89 | 1012.2 |
| 20260507094339 | 51 | 207 | 1.0 | 1.0 | 0.00 | 0.00 | 0.00 | 91 | 1012.4 |
| 20260507093836 | 51 | 207 | 0.0 | 0.0 | 0.00 | 0.00 | 0.00 | 93 | 1012.3 |
| 20260507093335 | 52 | 207 | 0.0 | 0.0 | 0.00 | 0.00 | 0.00 | 94 | 1012.3 |
| 20260507092832 | 52 | 207 | 1.0 | 1.0 | 0.00 | 0.00 | 0.00 | 93 | 1012.2 |
| 20260507092328 | 52 | 207 | 0.0 | 0.0 | 0.00 | 0.00 | 0.00 | 94 | 1012.2 |
| 20260507091825 | 52 | 207 | 0.0 | 0.0 | 0.00 | 0.00 | 0.00 | 93 | 1012.5 |
| 20260507091321 | 52 | 207 | 0.0 | 0.0 | 0.00 | 0.00 | 0.00 | 93 | 1012.5 |
| 20260507090817 | 52 | 207 | 0.0 | 0.0 | 0.00 | 0.00 | 0.00 | 90 | 1012.4 |
| 20260507090314 | 52 | 207 | 1.0 | 1.0 | 0.00 | 0.00 | 0.00 | 93 | 1012.3 |
| 20260507085811 | 52 | 207 | 0.0 | 0.0 | 0.00 | 0.00 | 0.00 | 92 | 1012.2 |
| 20260507085308 | 52 | 207 | 0.0 | 1.0 | 0.00 | 0.00 | 0.00 | 92 | 1011.9 |
| 20260507084805 | 52 | 207 | 0.0 | 0.0 | 0.00 | 0.00 | 0.00 | 90 | 1012.0 |
| 20260507084301 | 52 | 207 | 0.0 | 0.0 | 0.00 | 0.00 | 0.00 | 89 | 1012.2 |
| 20260507083759 | 52 | 207 | 0.0 | 1.0 | 0.00 | 0.00 | 0.00 | 94 | 1012.2 |
| 20260507083255 | 52 | 207 | 0.0 | 1.0 | 0.00 | 0.00 | 0.00 | 95 | 1012.0 |
| 20260507082751 | 52 | 207 | 0.0 | 0.0 | 0.00 | 0.00 | 0.00 | 95 | 1012.1 |
| 20260507082247 | 52 | 207 | 0.0 | 0.0 | 0.00 | 0.00 | 0.00 | 95 | 1012.3 |
| 20260507081744 | 52 | 207 | 0.0 | 0.0 | 0.00 | 0.00 | 0.00 | 95 | 1012.4 |
| 20260507081240 | 52 | 207 | 0.0 | 0.0 | 0.00 | 0.00 | 0.00 | 95 | 1012.4 |
| 20260507080737 | 52 | 207 | 1.0 | 1.0 | 0.00 | 0.00 | 0.00 | 95 | 1012.1 |
| 20260507080233 | 52 | 207 | 0.0 | 1.0 | 0.00 | 0.00 | 0.00 | 95 | 1012.1 |
| 20260507075729 | 52 | 207 | 0.0 | 0.0 | 0.00 | 0.00 | 0.00 | 94 | 1011.9 |
| 20260507075225 | 52 | 207 | 0.0 | 0.0 | 0.00 | 0.00 | 0.00 | 94 | 1012.0 |
| 20260507074722 | 52 | 207 | 0.0 | 0.0 | 0.00 | 0.00 | 0.00 | 94 | 1012.1 |
| 20260507074220 | 52 | 207 | 0.0 | 0.0 | 0.00 | 0.00 | 0.00 | 93 | 1012.2 |
| 20260507073716 | 53 | 207 | 0.0 | 0.0 | 0.00 | 0.00 | 0.00 | 93 | 1012.1 |
| 20260507073213 | 53 | 207 | 0.0 | 1.0 | 0.00 | 0.00 | 0.00 | 90 | 1012.3 |